Погода в Неплюевке

Россия / Челябинская область     52˚54′07″N   60˚07′14″E
темп.,
°C
ветер,
м/с
пор.,
м/с
влажн.,
%
обл.,
%
осадки,
мм/ч
давл.,
гПа
погр.,
м
16 января, сб
сб1623:00−10˚ююв41089100 0.0 1016305
02:00−9˚юв4991100 0.0 1013298
05:00−11˚юв4892100 0.0 1012183
08:00−11˚ююв4994100 0.0 1009226
11:00−10˚ююв4794100 0.0 1009209
14:00−8˚юз5993100 0.6 1007322
17:00−7˚юз6149595 0.6 1008298
20:00−8˚зюз7158626 0.0 1010397
17 января, вс
вс1723:00−12˚зюз6129013 0.0 1012242
02:00−12˚юз716900 0.0 1013292
05:00−12˚юз8199417 0.0 1011465
08:00−9˚юз101889100 0.1 10091000
11:00−11˚юз10198183 0.1 1010658
14:00−11˚зюз10178440 0.0 1011871
17:00−12˚зюз8178466 0.0 1013662
20:00−15˚зюз612890 0.0 1015239
18 января, пн
пн1823:00−19˚зюз45940 0.0 101764
02:00−20˚зюз45940 0.0 101872
05:00−20˚зюз45940 0.0 101871
08:00−20˚з34920 0.0 101832
11:00−19˚сз239123 0.0 101960
14:00−16˚с118669 0.0 1018111
17:00−20˚ююз119359 0.0 101820
20:00−20˚с229033 0.0 101820
19 января, вт
вт1923:00−20˚всв229261 0.0 101820
02:00−20˚всв2391100 0.0 101822
05:00−18˚всв3489100 0.0 1016126
08:00−18˚всв4693100 0.0 1016188
11:00−19˚всв5893100 0.0 1016224
14:00−18˚всв6995100 0.0 1014273
17:00−18˚всв61196100 0.2 1012345
20:00−18˚всв5996100 1.6 1012406
20 января, ср
ср2023:00−18˚св3697100 2.3 1013387
02:00−19˚с2398100 0.4 101482
05:00−21˚ссз3398100 0.6 101667
08:00−25˚зсз239721 0.0 101920
11:00−23˚сз339638 0.0 102157
14:00−20˚зсз12910 0.0 1022168
17:00−25˚ссв11990 0.0 102420
20:00−26˚всв239834 0.0 102619